Regional Weather Roundup
Issued by NWS Sterling, VA

Home | Current Version | Previous Version | Graphics & Text | Print | Product List | Glossary On
Versions: 1 2 3 4 5 6 7 8 9 10 11 12 13 14 15 16 17 18 19 20 21 22 23 24 25 26 27 28
000
ASUS41 KLWX 260710
RWRLWX

REGIONAL WEATHER ROUNDUP
NATIONAL WEATHER SERVICE BALTIMORE MD/WASHINGTON DC
200 AM EST SUN FEB 26 2017

Note: "FAIR" indicates few or no clouds below 12,000 feet
with no significant weather and/or obstructions to visibility.
 TC=TEMPERATURE CELSIUS

 * =Non NWS site. Station does not report precipitation (e.g. rain,
    snow, etc.), thunder, or fog.

DCZ001-MDZ009-015-VAZ040>042-051-053>054-260800-
WASHINGTON METRO

CITY           SKY/WX    TMP DP  RH WIND       PRES   REMARKS
WASHINGTON NAT CLOUDY    42  23  46 NW15G25   29.92R
DULLES         MOCLDY    39  22  50 NW17      29.92R
ANDREWS AFB    MOCLDY    41  22  47 NW16      29.89R
FT BELVOIR     CLEAR     41  21  44 NW15G22   29.93R
QUANTICO       MOCLDY    41  23  48 N9        29.94R
COLLEGE PARK*  MOCLDY    37  21  52 NW12G22   29.92R
LEESBURG*      CLOUDY    37  25  60 MISG      29.94R
MANASSAS*      PTCLDY    39  21  48 NW17G26   29.94R
GAITHERSBURG*  PTCLDY    36  16  44 NW14G22   29.94R WCI  27

$$

MDZ006>007-011-014-260800-
BALTIMORE METRO

CITY           SKY/WX    TMP DP  RH WIND       PRES   REMARKS
BWI AIRPORT    MOCLDY    39  22  50 NW20G29   29.89R
MD SCIENCE CTR   N/A     43  21  41 MISG      29.89R
MARTIN STATE   CLOUDY    41  27  56 W16       29.90R
ANNAPOLIS      MOCLDY    43  26  51 NW10G17   29.89R
FORT MEADE*    PTCLDY    37  23  56 NW15G26   29.93R WCI  28

$$

MDZ012-015-019>023-260800-
MARYLAND EASTERN SHORE

CITY           SKY/WX    TMP DP  RH WIND       PRES   REMARKS
OCEAN CITY     CLEAR     44  26  49 NW14G26   29.83R
SALISBURY      CLEAR     43  27  53 NW15G22   29.84R
BAY BRIDGE AP* PTCLDY    41  27  56 NW16G26   29.89R
CAMBRIDGE*     CLEAR     43  25  49 NW14      29.87R
EASTON*        CLEAR     43  24  47 N18G24    29.91R

$$

MDZ017>025-260800-
SOUTHERN MARYLAND

CITY           SKY/WX    TMP DP  RH WIND       PRES   REMARKS
PATUXENT RIVER CLEAR     43  26  51 NW24      29.88R
ST INIGOES     CLEAR     43  24  47 NW12      29.88R
LEONARDTOWN*   CLEAR     41  23  48 NW9G20    29.90R

$$

MDZ003>005-260800-
NORTH CENTRAL MARYLAND

CITY           SKY/WX    TMP DP  RH WIND       PRES   REMARKS
FREDERICK*     CLOUDY    36  23  60 W16       29.95R WCI  26
HAGERSTOWN APT CLOUDY    35  21  56 NW18G28   29.92R WCI  24
WESTMINSTER*   MOCLDY    37  25  60 NW14G21   29.88S WCI  29

$$

MDZ501>502-260800-
WESTERN MARYLAND

CITY           SKY/WX    TMP DP  RH WIND       PRES   REMARKS
OAKLAND*       CLOUDY    19  14  79 W14G23    29.86R WCI   6
CUMBERLAND*    CLOUDY    32  16  51 W15G32    30.01R WCI  22

$$

VAZ025>031-260800-
SHENANDOAH VALLEY

CITY           SKY/WX    TMP DP  RH WIND       PRES   REMARKS
WINCHESTER*    CLOUDY    34  19  55 NW17G24   29.93R WCI  23
FRONT ROYAL*   MOCLDY    36  21  55 NW10G24   29.92R WCI  28
LURAY*         PTCLDY    36  23  60 CALM      29.92R
NEW MARKET*    CLEAR     34  13  43 W8G17     29.92S WCI  27
STAUNTON*      CLEAR     33  17  51 NW9       29.93R WCI  25
WAYNESBORO*    CLEAR     33  17  51 CALM      29.90R

$$

WVZ021-048>050-054>055-260800-
EASTERN WEST VIRGINIA PANHANDLE

CITY           SKY/WX    TMP DP  RH WIND       PRES   REMARKS
MARTINSBURG    CLOUDY    35  18  49 NW15G24   29.93R WCI  25
PETERSBURG*    CLOUDY    34  18  52 NW12G25   29.96S WCI  26

$$

VAZ036>039-050-260800-
CENTRAL FOOTHILLS

CITY           SKY/WX    TMP DP  RH WIND       PRES   REMARKS
CHARLOTTESVILL CLEAR     39  20  46 N5        29.93R
CULPEPER*      CLEAR     40  22  47 NW7       29.95R
ORANGE*        CLEAR     37  21  52 CALM      29.94R
GORDONSVILLE*  CLEAR     40  21  47 NW7       29.92R
WARRENTON*     MOCLDY    40  20  45 NW10      29.93R

$$

VAZ055>057-260800-
NORTH AND CENTRAL PIEDMONT

CITY           SKY/WX    TMP DP  RH WIND       PRES   REMARKS
FREDERICKSBRG* CLEAR     41  24  51 NW10      29.92R
STAFFORD*      CLEAR     38  22  53 CALM      29.97R

$$

NCZ024-NYZ072-PAZ021-071-VAZ022-071-260800-
OTHER REGIONAL OBSERVATIONS

CITY           SKY/WX    TMP DP  RH WIND       PRES   REMARKS
NEW YORK CITY  CLOUDY    41  31  67 VRB7G18   29.74R
PHILADELPHIA   PTCLDY    44  25  47 NW20G29   29.83R
PITTSBURGH     FLURRIES  27  15  61 W12G22    29.98S WCI  17
ROANOKE        CLEAR     34  17  50 W8        29.97S WCI  27
RICHMOND       CLEAR     45  22  40 NW13      29.90R
RALEIGH        CLEAR     46  15  28 VRB6      29.96R

$$

ANZ530>537-260800-
MARINE OBSERVATIONS

STATION/POSITION TIME  TEMP    WIND        PRES
                       AIR SEA DIR/SP/G
                 (UTC) (F)     (DEG/KT/KT) (MB)
THOMAS PT LIGHT  0700   42 44  310/ 17/ 21   N/A
BALT KEY BRIDGE  0642   42     290/ 21/ 24 1011.7R
COVE POINT       0642   43     340/ 22/ 29 1012.0R
LEWISETTA        0648   44 48  340/ 15/ 24 1011.9R
SOLOMONS ISLAND  0642   44 44  320/ 17/ 22   N/A
PINEY POINT      0648          350/ 23/ 26   N/A

$$





USA.gov is the U.S. government's official web portal to all federal, state and local government web resources and services.